This demonstration page uses our WeatherBlox Daily Observations layout. Learn more.

Hourly Observations for February 13, 2017

Temp ( °F °C ) Dew Point ( °F °C ) Humidity (%) Winds ( mph kmh ) Pressure ( in mb ) Visibility ( mi km ) Precip ( " mm )
12:15 am 00:15 Partly Cloudy 43 6 25 -4 49 49 NW 29 46 29.91 1013 10 16.09344 0 0
12:35 am 00:35 Clear 43 6 23 -5 46 46 undefined N/A 29.91 1013 10 16.09344 0 0
12:55 am 00:55 Clear 43 6 23 -5 46 46 NW 23 37 29.94 1014 10 16.09344 0 0
1:15 am 01:15 Clear 41 5 19 -7 42 42 NW 31 50 29.94 1014 10 16.09344 0 0
1:35 am 01:35 Clear 41 5 19 -7 42 42 NW 28 44 29.97 1015 10 16.09344 0 0
1:55 am 01:55 Clear 41 5 21 -6 45 45 NNW 26 43 29.97 1015 10 16.09344 0 0
2:15 am 02:15 Clear 41 5 21 -6 45 45 NW 26 43 29.97 1015 10 16.09344 0 0
2:35 am 02:35 Partly Cloudy 41 5 21 -6 45 45 NW 22 35 29.97 1015 10 16.09344 0 0
2:55 am 02:55 Partly Cloudy 41 5 21 -6 45 45 NW 22 35 29.97 1015 10 16.09344 0 0
3:15 am 03:15 Clear 39 4 23 -5 52 52 WNW 30 48 29.97 1015 10 16.09344 0 0
3:35 am 03:35 Partly Cloudy 39 4 27 -3 61 61 WNW 28 44 29.97 1015 10 16.09344 0 0
3:55 am 03:55 Cloudy 41 5 25 -4 53 53 NW 23 37 30 1016 10 16.09344 0 0
4:15 am 04:15 Cloudy 37 3 30 -1 75 75 NNW 25 41 30.03 1017 10 16.09344 0 0
4:35 am 04:35 Partly Cloudy 37 3 27 -3 65 65 NW 24 39 30.03 1017 10 16.09344 0 0
4:55 am 04:55 Mostly Cloudy 37 3 25 -4 60 60 NW 21 33 30.03 1017 10 16.09344 0 0
5:15 am 05:15 Cloudy 37 3 23 -5 56 56 WNW 28 44 30.03 1017 10 16.09344 0 0
5:35 am 05:35 Mostly Cloudy 37 3 27 -3 65 65 WNW 18 30 30.03 1017 10 16.09344 0 0
5:55 am 05:55 Cloudy 36 2 27 -3 70 70 NW 32 52 30.03 1017 10 16.09344 0 0
6:15 am 06:15 Mostly Cloudy 36 2 27 -3 70 70 NW 29 46 30.03 1017 10 16.09344 0 0
6:35 am 06:35 Mostly Cloudy 36 2 27 -3 70 70 NW 24 39 30.03 1017 10 16.09344 0 0
6:55 am 06:55 Partly Cloudy 36 2 27 -3 70 70 NW 29 46 30.03 1017 10 16.09344 0 0
7:15 am 07:15 Partly Cloudy 36 2 27 -3 70 70 NW 26 43 30.06 1018 10 16.09344 0 0
7:35 am 07:35 Mostly Cloudy 36 2 27 -3 70 70 NW 28 44 30.06 1018 10 16.09344 0 0
7:55 am 07:55 Mostly Cloudy 37 3 27 -3 65 65 NW 33 54 30.06 1018 10 16.09344 0 0
8:15 am 08:15 Cloudy 37 3 25 -4 60 60 NW 24 39 30.09 1019 10 16.09344 0 0
8:35 am 08:35 Cloudy 37 3 23 -5 56 56 NNW 26 43 30.09 1019 10 16.09344 0 0
8:55 am 08:55 Mostly Cloudy 37 3 25 -4 60 60 NW 25 41 30.09 1019 10 16.09344 0 0
9:15 am 09:15 Sunny 37 3 23 -5 56 56 NNW 26 43 30.09 1019 10 16.09344 0 0
9:35 am 09:35 Sunny 37 3 21 -6 52 52 NW 32 52 30.09 1019 10 16.09344 0 0
9:55 am 09:55 Partly Cloudy 37 3 23 -5 56 56 NNW 32 52 30.12 1020 10 16.09344 0 0
10:15 am 10:15 Sunny 39 4 23 -5 52 52 NW 36 57 30.09 1019 10 16.09344 0 0
10:35 am 10:35 Sunny 41 5 21 -6 45 45 NNW 25 41 30.09 1019 10 16.09344 0 0
10:55 am 10:55 Sunny 41 5 21 -6 45 45 NNW 23 37 30.09 1019 10 16.09344 0 0
11:15 am 11:15 Partly Cloudy 41 5 23 -5 49 49 NNW 18 30 30.09 1019 10 16.09344 0 0
11:35 am 11:35 Mostly Cloudy 41 5 23 -5 49 49 N 24 39 30.09 1019 10 16.09344 0 0
11:55 am 11:55 Mostly Cloudy 41 5 23 -5 49 49 NNW 28 44 30.09 1019 10 16.09344 0 0
12:15 pm 12:15 Partly Cloudy 43 6 25 -4 49 49 NW 31 50 30.06 1018 10 16.09344 0 0
12:35 pm 12:35 Sunny 43 6 23 -5 46 46 N 26 43 30.06 1018 10 16.09344 0 0
12:55 pm 12:55 Partly Cloudy 43 6 23 -5 46 46 NNW 21 33 30.09 1019 10 16.09344 0 0
2:15 pm 14:15 Partly Cloudy 45 7 23 -5 42 42 N 20 31 30.06 1018 10 16.09344 0 0
2:35 pm 14:35 Sunny 45 7 25 -4 46 46 NNW 18 30 30.06 1018 10 16.09344 0 0
2:55 pm 14:55 Sunny 45 7 23 -5 42 42 NNW 23 37 30.06 1018 10 16.09344 0 0
3:55 pm 15:55 Sunny 45 7 23 -5 42 42 NNW 22 35 30.06 1018 10 16.09344 0 0
4:15 pm 16:15 Sunny 45 7 23 -5 42 42 NW 21 33 30.06 1018 10 16.09344 0 0
4:35 pm 16:35 Sunny 45 7 23 -5 42 42 NNW 14 22 30.06 1018 10 16.09344 0 0
4:55 pm 16:55 Sunny 45 7 21 -6 39 39 NNW 14 22 30.06 1018 10 16.09344 0 0
5:15 pm 17:15 Sunny 43 6 23 -5 46 46 N 13 20 30.06 1018 10 16.09344 0 0
5:35 pm 17:35 Sunny 43 6 23 -5 46 46 N 10 17 30.09 1019 10 16.09344 0 0
5:55 pm 17:55 Clear 41 5 23 -5 49 49 N 7 11 30.09 1019 10 16.09344 0 0
6:15 pm 18:15 Clear 41 5 23 -5 49 49 NNE 6 9 30.09 1019 10 16.09344 0 0
6:35 pm 18:35 Clear 41 5 23 -5 49 49 undefined N/A 30.12 1020 10 16.09344 0 0
6:55 pm 18:55 Clear 39 4 23 -5 52 52 undefined N/A 30.12 1020 10 16.09344 0 0
7:15 pm 19:15 Clear 37 3 23 -5 56 56 NNW 6 9 30.12 1020 10 16.09344 0 0
7:35 pm 19:35 Clear 37 3 23 -5 56 56 N 6 9 30.12 1020 10 16.09344 0 0
7:55 pm 19:55 Clear 36 2 23 -5 60 60 undefined N/A 30.12 1020 10 16.09344 0 0
8:15 pm 20:15 Clear 36 2 23 -5 60 60 undefined N/A 30.12 1020 10 16.09344 0 0
8:35 pm 20:35 Clear 34 1 23 -5 65 65 undefined N/A 30.12 1020 10 16.09344 0 0
8:55 pm 20:55 Clear 36 2 23 -5 60 60 undefined N/A 30.12 1020 10 16.09344 0 0
9:15 pm 21:15 Clear 36 2 23 -5 60 60 undefined N/A 30.12 1020 10 16.09344 0 0
9:35 pm 21:35 Clear 32 0 23 -5 69 69 undefined N/A 30.12 1020 10 16.09344 0 0
9:55 pm 21:55 Clear 32 0 25 -4 75 75 undefined N/A 30.12 1020 10 16.09344 0 0
10:15 pm 22:15 Clear 32 0 25 -4 75 75 Calm 30.12 1020 10 16.09344 0 0
10:35 pm 22:35 Clear 32 0 25 -4 75 75 Calm 30.12 1020 10 16.09344 0 0
10:55 pm 22:55 Clear 32 0 25 -4 75 75 Calm 30.12 1020 10 16.09344 0 0
11:15 pm 23:15 Clear 30 -1 23 -5 75 75 undefined N/A 30.12 1020 10 16.09344 0 0
11:35 pm 23:35 Clear 30 -1 23 -5 75 75 undefined N/A 30.12 1020 10 16.09344 0 0
11:55 pm 23:55 Clear 28 -2 23 -5 80 80 Calm 30.12 1020 10 16.09344 0 0

Powered by AerisWeather